Change the Weather History Date:

Friday, November 23, 2012

  Actual Average (KHSV) Record (KHSV)
Temperature  
Mean Temperature 48 °F 50 °F  
Max Temperature 59 °F 61 °F 79 °F (1921)
Min Temperature 37 °F 40 °F 15 °F (1976)
Degree Days  
Heating Degree Days 17 15  
Month to date heating degree days 262  
Since 1 July heating degree days 413  
Cooling Degree Days 0 0  
Month to date cooling degree days 7  
Year to date cooling degree days 1947  
Moisture  
Dew Point 36 °F    
Average Humidity 68    
Maximum Humidity 93    
Minimum Humidity 36    
Precipitation  
Precipitation 0.00 in 0.18 in 3.02 in (1986)
Month to date precipitation 3.61  
Year to date precipitation 47.24  
Snow  
Snow 0.00 in - - ()
Month to date snowfall  
Since 1 July snowfall  
Since 1 September snowfall  
Snow Depth -    
Sea Level Pressure  
Sea Level Pressure 30.17 in    
Wind  
Wind Speed 3 mph (NW)    
Max Wind Speed 16 mph    
Max Gust Speed 26 mph    
Visibility 10 miles    
Events      
T = Trace of Precipitation, MM = Missing Value Source: NWS Daily Summary

Daily Weather History Graph

Daily Weather History Graph

Search for Another Location

Airport or City:

Trip Planner

Search our weather history database for the weather conditions in past years. The results will help you decide how hot, cold, wet, or windy it might be!

Date:

Astronomy

Nov. 23, 2012 Rise Set
Actual Time 6:28 AM CST 4:36 PM CST
Civil Twilight 6:01 AM CST 5:04 PM CST
Nautical Twilight 5:30 AM CST 5:34 PM CST
Astronomical Twilight 5:00 AM CST 6:05 PM CST
Moon 1:42 PM CST (11/23) 1:56 AM CST (11/23)
Length of Visible Light 11h 02m
Length of Day
10h 08m
Waxing Gibbous, 80% of the Moon is Illuminated
Nov 23
Waxing Gibbous
Nov 28
Full
Dec 6
Last Quarter
Dec 13
New
Dec 19
First Quarter

Hourly Weather History & Observations

Time (CST) Temp. Windchill Dew Point Humidity Pressure Visibility Wind Dir Wind Speed Gust Speed Precip Events Conditions
12:15 AM 39.2 °F - 35.6 °F 87% 30.17 in 10.0 mi Calm Calm - N/A   Clear
12:35 AM 41.0 °F - 37.4 °F 87% 30.16 in 10.0 mi Calm Calm - N/A   Clear
12:55 AM 41.0 °F - 35.6 °F 81% 30.17 in 10.0 mi Calm Calm - N/A   Clear
1:15 AM 37.4 °F - 33.8 °F 87% 30.17 in 10.0 mi Calm Calm - N/A   Clear
1:35 AM 39.2 °F - 35.6 °F 87% 30.18 in 10.0 mi Calm Calm - N/A   Clear
1:55 AM 39.2 °F - 35.6 °F 87% 30.18 in 10.0 mi Calm Calm - N/A   Clear
2:15 AM 41.0 °F - 37.4 °F 87% 30.19 in 10.0 mi Calm Calm - N/A   Clear
2:35 AM 41.0 °F - 35.6 °F 81% 30.19 in 10.0 mi Calm Calm - N/A   Clear
2:55 AM 39.2 °F - 35.6 °F 87% 30.18 in 10.0 mi Calm Calm - N/A   Clear
3:15 AM 39.2 °F - 35.6 °F 87% 30.18 in 10.0 mi Calm Calm - N/A   Clear
3:35 AM 37.4 °F - 35.6 °F 93% 30.17 in 10.0 mi Calm Calm - N/A   Clear
3:55 AM 37.4 °F - 35.6 °F 93% 30.17 in 10.0 mi Calm Calm - N/A   Clear
4:15 AM 37.4 °F - 35.6 °F 93% 30.16 in 7.0 mi Calm Calm - N/A   Clear
4:35 AM 37.4 °F - 35.6 °F 93% 30.16 in 10.0 mi Calm Calm - N/A   Clear
4:55 AM 37.4 °F - 35.6 °F 93% 30.16 in 10.0 mi Calm Calm - N/A   Clear
5:15 AM 37.4 °F - 35.6 °F 93% 30.16 in 10.0 mi Calm Calm - N/A   Clear
5:35 AM 37.4 °F - 35.6 °F 93% 30.15 in 7.0 mi Calm Calm - N/A   Clear
5:55 AM 37.4 °F - 35.6 °F 93% 30.15 in 10.0 mi Calm Calm - N/A   Clear
6:15 AM 37.4 °F - 35.6 °F 93% 30.15 in 10.0 mi Calm Calm - N/A   Mostly Cloudy
6:35 AM 39.2 °F - 35.6 °F 87% 30.15 in 7.0 mi Calm Calm - N/A   Mostly Cloudy
6:55 AM 42.8 °F - 39.2 °F 87% 30.16 in 10.0 mi Calm Calm - N/A   Overcast
7:15 AM 44.6 °F - 41.0 °F 87% 30.16 in 10.0 mi Calm Calm - N/A   Mostly Cloudy
7:35 AM 46.4 °F 42.9 °F 42.8 °F 87% 30.16 in 10.0 mi SW 6.9 mph - N/A   Scattered Clouds
7:55 AM 55.4 °F - 42.8 °F 63% 30.17 in 10.0 mi WSW 6.9 mph - N/A   Scattered Clouds
8:15 AM 55.4 °F - 41.0 °F 58% 30.16 in 10.0 mi WSW 4.6 mph - N/A   Clear
8:35 AM 55.4 °F - 41.0 °F 58% 30.16 in 10.0 mi SW 5.8 mph - N/A   Scattered Clouds
8:55 AM 57.2 °F - 41.0 °F 55% 30.16 in 10.0 mi West 5.8 mph - N/A   Scattered Clouds
9:15 AM 57.2 °F - 41.0 °F 55% 30.16 in 10.0 mi West 4.6 mph - N/A   Overcast
9:35 AM 59.0 °F - 42.8 °F 55% 30.16 in 10.0 mi WNW 6.9 mph - N/A   Overcast
9:55 AM 59.0 °F - 42.8 °F 55% 30.15 in 10.0 mi West 8.1 mph - N/A   Mostly Cloudy
10:15 AM 57.2 °F - 44.6 °F 63% 30.17 in 10.0 mi WNW 10.4 mph - N/A   Overcast
10:35 AM 55.4 °F - 42.8 °F 63% 30.17 in 10.0 mi WNW 9.2 mph - N/A   Overcast
10:55 AM 55.4 °F - 44.6 °F 67% 30.16 in 10.0 mi WNW 9.2 mph - N/A   Overcast
11:15 AM 55.4 °F - 44.6 °F 67% 30.16 in 10.0 mi WNW 9.2 mph - N/A   Overcast
11:35 AM 55.4 °F - 44.6 °F 67% 30.15 in 10.0 mi WNW 4.6 mph - N/A   Overcast
11:55 AM 55.4 °F - 44.6 °F 67% 30.15 in 10.0 mi WNW 9.2 mph - N/A   Overcast
12:15 PM 53.6 °F - 44.6 °F 72% 30.15 in 10.0 mi WNW 10.4 mph - N/A   Overcast
12:35 PM 53.6 °F - 46.4 °F 77% 30.14 in 7.0 mi NW 10.4 mph - N/A   Overcast
12:55 PM 53.6 °F - 46.4 °F 77% 30.14 in 7.0 mi NW 6.9 mph - N/A   Overcast
1:15 PM 53.6 °F - 46.4 °F 77% 30.14 in 7.0 mi NW 5.8 mph - N/A   Overcast
1:35 PM 53.6 °F - 44.6 °F 72% 30.13 in 7.0 mi NNW 3.5 mph - N/A   Overcast
1:55 PM 55.4 °F - 46.4 °F 72% 30.13 in 10.0 mi NW 4.6 mph - N/A   Overcast
2:15 PM 55.4 °F - 44.6 °F 67% 30.13 in 10.0 mi NNW 5.8 mph - N/A   Mostly Cloudy
2:35 PM 55.4 °F - 42.8 °F 63% 30.13 in 10.0 mi WNW 6.9 mph - N/A   Scattered Clouds
2:55 PM 57.2 °F - 41.0 °F 55% 30.13 in 10.0 mi WNW 6.9 mph - N/A   Scattered Clouds
3:15 PM 59.0 °F - 39.2 °F 48% 30.13 in 10.0 mi NW 8.1 mph - N/A   Scattered Clouds
3:35 PM 57.2 °F - 32.0 °F 38% 30.13 in 10.0 mi WNW 6.9 mph - N/A   Clear
3:55 PM 55.4 °F - 30.2 °F 38% 30.13 in 10.0 mi WNW 6.9 mph - N/A   Clear
4:15 PM 55.4 °F - 28.4 °F 36% 30.14 in 10.0 mi WNW 5.8 mph - N/A   Clear
4:35 PM 51.8 °F - 28.4 °F 41% 30.14 in 10.0 mi NW 3.5 mph - N/A   Clear
4:55 PM 50.0 °F - 28.4 °F 43% 30.14 in 10.0 mi WNW 3.5 mph - N/A   Clear
5:15 PM 50.0 °F - 32.0 °F 50% 30.14 in 10.0 mi Calm Calm - N/A   Clear
5:35 PM 46.4 °F 44.3 °F 28.4 °F 50% 30.15 in 10.0 mi WNW 4.6 mph - N/A   Clear
5:55 PM 46.4 °F 42.9 °F 28.4 °F 50% 30.16 in 10.0 mi NW 6.9 mph - N/A   Clear
6:35 PM 46.4 °F 43.5 °F 26.6 °F 46% 30.17 in 10.0 mi NW 5.8 mph - N/A   Clear
6:55 PM 46.4 °F 42.4 °F 26.6 °F 46% 30.18 in 10.0 mi NNW 8.1 mph - N/A   Clear
7:15 PM 46.4 °F 42.9 °F 26.6 °F 46% 30.18 in 10.0 mi NW 6.9 mph - N/A   Clear
7:35 PM 46.4 °F 42.4 °F 26.6 °F 46% 30.19 in 10.0 mi NW 8.1 mph - N/A   Clear
7:55 PM 42.8 °F 40.1 °F 28.4 °F 57% 30.19 in 10.0 mi NNW 4.6 mph - N/A   Clear
8:15 PM 39.2 °F 37.0 °F 28.4 °F 65% 30.19 in 10.0 mi NW 3.5 mph - N/A   Clear
8:35 PM 37.4 °F 32.8 °F 28.4 °F 70% 30.19 in 10.0 mi NW 5.8 mph - N/A   Clear
8:55 PM 44.6 °F 38.8 °F 28.4 °F 53% 30.19 in 10.0 mi NNW 11.5 mph - N/A   Clear
9:15 PM 44.6 °F 39.7 °F 28.4 °F 53% 30.19 in 10.0 mi NW 9.2 mph - N/A   Clear
9:35 PM 44.6 °F 39.7 °F 28.4 °F 53% 30.19 in 10.0 mi NNW 9.2 mph - N/A   Clear
9:55 PM 42.8 °F 37.0 °F 28.4 °F 57% 30.20 in 10.0 mi NNW 10.4 mph - N/A   Clear
10:15 PM 42.8 °F 35.1 °F 28.4 °F 57% 30.21 in 10.0 mi North 16.1 mph 26.5 mph N/A   Clear
10:35 PM 42.8 °F 36.6 °F 28.4 °F 57% 30.21 in 10.0 mi North 11.5 mph 24.2 mph N/A   Clear
10:55 PM 41.0 °F 33.9 °F 28.4 °F 61% 30.21 in 10.0 mi North 12.7 mph - N/A   Clear
11:15 PM 41.0 °F 34.7 °F 28.4 °F 61% 30.21 in 10.0 mi North 10.4 mph - N/A   Clear
11:35 PM 39.2 °F 32.5 °F 28.4 °F 65% 30.21 in 10.0 mi NNW 10.4 mph - N/A   Clear
11:55 PM 39.2 °F 33.0 °F 28.4 °F 65% 30.22 in 10.0 mi North 9.2 mph - N/A   Clear